Погода в Моуи

Австралия     38°10′40″S   146°15′39″E
темп.,
°C
ветер,
м/с
пор.,
м/с
влажн.,
%
обл.,
%
осадки,
мм/ч
давл.,
гПа
погр.,
м
6 августа, пт
пт601:00+10з41188100 0.1 1020978
04:00+9з41186100 0.2 1020955
07:00+10зсз41076100 0.0 10211184
10:00+11зсз41071100 0.0 10221193
13:00+12зсз41066100 0.0 10221504
16:00+11зсз41068100 0.0 10211346
19:00+10зсз31071100 0.0 1023856
22:00+10зсз31080100 0.1 1024715
7 августа, сб
сб701:00+10зсз31076100 0.1 1023812
04:00+9зсз31078100 0.1 1023907
07:00+9зсз31075100 0.0 1024939
10:00+10зсз3970100 0.0 10251046
13:00+12з41071100 0.1 10251263
16:00+10з288926 0.6 1026826
19:00+6з119933 0.2 102915
22:00+6з119982 0.2 103115
8 августа, вс
вс801:00+6юв118923 0.0 103215
04:00+3юв11982 0.0 103210
07:00+3вюв119914 0.0 103311
10:00+9всв13720 0.0 1033402
13:00+13ссз12474 0.0 10301195
16:00+13юз135039 0.0 1029824
19:00+6ююз118799 0.0 103012
22:00+4в11975 0.0 103110
9 августа, пн
пн901:00+6в0085100 0.0 102937
04:00+6всв1182100 0.0 102829
07:00+7в1179100 0.0 102919
10:00+10всв1265100 0.0 1028208
13:00+15сз2544100 0.0 10251997
16:00+13зсз1556100 0.0 1024290
19:00+8с017653 0.0 102410
22:00+5всв11890 0.0 102510
10 августа, вт
вт1001:00+4в11935 0.0 102411
04:00+4всв11965 0.0 102311
07:00+4в11975 0.0 102323
10:00+14с28560 0.0 1021831
13:00+18ссз49421 0.0 10181837
16:00+16ссз311474 0.0 10171731
19:00+11ссз210630 0.0 10181027
22:00+10ссв213700 0.0 1016579